Regional Weather Roundup
Issued by NWS

Home | Current Version | Previous Version | Text Only | Print | Product List | Glossary Off
Versions: 1 2 3 4 5 6 7 8 9 10 11 12 13 14 15 16 17 18 19 20 21 22 23 24 25 26 27 28 29 30 31 32 33 34 35 36 37 38 39 40 41 42 43 44 45 46 47 48 49 50

076
ASUS45 KBOU 292107
RWRCO

WEATHER ROUNDUP FOR COLORADO
NATIONAL WEATHER SERVICE DENVER/BOULDER CO
300 PM MDT MON AUG 29 2016

NOTE: "FAIR" INDICATES FEW OR NO CLOUDS BELOW 12000 FEET WITH NO
SIGNIFICANT WEATHER AND/OR OBSTRUCTIONS TO VISIBILITY.

COZ001>005-013-030-031-292200-
...NORTHWEST COLORADO...

CITY           SKY/WX    TMP DP  RH WIND       PRES   REMARKS
CRAIG          FAIR      81  29  15 E8        30.30F
HAYDEN         FAIR      81  32  17 E18       30.32F
MEEKER         PTSUNNY   78  38  23 SE7       30.31F
MOUNT WERNER   NOT AVBL
STEAMBOAT SPGS FAIR      75  36  23 E5        30.35S
WALDEN         FAIR      70  32  24 E12G18    30.47F
$$

COZ006>008-011-292200-
...WEST CENTRAL VALLEYS...

CITY           SKY/WX    TMP DP  RH WIND       PRES   REMARKS
GRAND JUNCTION FAIR      82  42  24 SE12G17   30.19F
MONTROSE       FAIR      77  41  27 N9        30.28F
EAGLE          PTSUNNY   70  45  40 CALM      30.36F
RIFLE          FAIR      77  41  27 CALM      30.27F
DELTA          PTSUNNY   76  44  31 NE17G28   30.28R
NUCLA          FAIR     N/A N/A N/A N6        30.29F
$$

COZ017>023-064>068-292200-
...SOUTHWEST COLORADO...

CITY           SKY/WX    TMP DP  RH WIND       PRES   REMARKS
DURANGO        FAIR      75  39  27 N7        30.31F
CORTEZ         PTSUNNY   79  44  28 VRB5      30.27F
PAGOSA SPRINGS PTSUNNY   65  40  39 NE14G20   30.41S
TELLURIDE      FAIR      62  41  45 W7        30.49F
WOLF CREEK PAS PTSUNNY   37  37 100 NE17      30.69F
$$

COZ009-010-012-014-032>034-037-058>063-292200-
...CENTRAL COLORADO...

CITY           SKY/WX    TMP DP  RH WIND       PRES   REMARKS
ASPEN          PTSUNNY   70  42  36 VRB5      30.39F
BUENA VISTA    CLOUDY    58  43  57 NE12G24   30.46S THUNDER
COPPER MTN     CLOUDY    46  32  57 SE8       30.70R
BERTHOUD PASS  CLOUDY    41  30  65 E24G30    30.74S
COTTONWOOD PAS TSTM      52  39  62 CALM      30.59R
GUNNISON       FAIR      68  37  32 CALM      30.42F
KREMMLING      FAIR      70  36  28 SW3       30.41F
LEADVILLE      LGT RAIN  51  36  56 E8G18     30.56R
MONARCH PASS   PTSUNNY   45  37  76 E18       30.76S
SALIDA         FAIR      73  43  35 E18G24    30.45S
SUNLIGHT       FAIR      55  39  54 SW3       30.64F
WILKERSON PASS CLOUDY    46  37  71 E14G21    30.67F THUNDER
$$

COZ069>075-292200-
...SAN LUIS VALLEY/SANGRE DE CRISTO MOUNTAINS...

CITY           SKY/WX    TMP DP  RH WIND       PRES   REMARKS
ALAMOSA        FAIR      70  42  36 S8        30.38F
LA VETA PASS   CLOUDY    45  41  87 SE9       30.60R
SAGUACHE       FAIR      70  43  37 S12       30.40F
$$

COZ035-036-038>040-292200-
...NORTHERN COLORADO FRONT RANGE...

CITY           SKY/WX    TMP DP  RH WIND       PRES   REMARKS
DENVER INTL AP PTSUNNY   76  47  35 E12       30.28F
DMNS CITY PARK   N/A     65  55  69 SE8       30.30R
AURORA         PTSUNNY   72  49  44 S8        30.32R
FRONT RANGE AP PTSUNNY   77  48  36 E8          N/A
ERIE MUNI ARPT PTSUNNY   80  41  24 E9        30.26S
BOULDER MUN AP FAIR      81  37  21 NE8       30.27S
CENTENNIAL     TSTM      65  55  70 S5        30.34R
BROOMFIELD     TSTM      73  46  38 SE14G23   30.31S
FORT COLLINS   FAIR      82  45  26 SW5       30.21F
LONGMONT       FAIR      85  41  21 E6        30.27F
$$

COZ041-046-047-076>085-087-088-292200-
...PIKES PEAK/PALMER DIVIDE AND SOUTHERN FOOTHILLS...

CITY           SKY/WX    TMP DP  RH WIND       PRES   REMARKS
COLO. SPRINGS  TSTM      55  53  93 NW16      30.38F
A. F. ACADEMY  TSTM      54  50  87 SW7       30.41R
SCHRIEVER AFB  NOT AVBL
ELLICOTT       NOT AVBL
FALCON         TSTM      52  49  87 S7        30.42S
FORT CARSON    TSTM      57  50  77 NW14      30.36S
LIMON          FAIR      71  58  63 SE15      30.31F
MONUMENT HILL  TSTM      55  45  67 E8        30.44R
TRINIDAD       FAIR      69  48  47 CALM      30.32F
$$

COZ042>045-048>051-090-091-292200-
...NORTHEAST COLORADO...

CITY           SKY/WX    TMP DP  RH WIND       PRES   REMARKS
GREELEY ARPT   PTSUNNY   82  48  30 E8        30.25S
AKRON          FAIR      77  54  44 SE14      30.27F
BURLINGTON     FAIR      73  57  57 S13       30.27F
WRAY           FAIR      79  61  53 SE9       30.24F
STERLING       PTSUNNY   84  50  30 SE7       30.20F
HOLYOKE        FAIR      79  61  53 SE13      30.23F
FORT MORGAN    FAIR      83  49  30 SE13      30.25F
$$

COZ086-089-092>099-292200-
...SOUTHEAST COLORADO...

CITY           SKY/WX    TMP DP  RH WIND       PRES   REMARKS
PUEBLO         FAIR      79  53  40 VRB3      30.25F
LA JUNTA       FAIR      76  56  49 VRB6      30.24F
LAMAR          FAIR      77  58  51 E7G22     30.21F
SPRINGFIELD      N/A     71  59  65 E7        30.27F
$$




USA.gov is the U.S. government's official web portal to all federal, state and local government web resources and services.